Welcome to the New NWS' Forecast!
Most changes are behind the scenes, but click here for differences you might notice.

Regional Weather Roundup (RWR)

Issued by National Weather Service (NWS)

                            
000
ASUS46 KSEW 161910
RWRWA 

WASHINGTON REGIONAL WEATHER ROUNDUP
NATIONAL WEATHER SERVICE SEATTLE WA
1100 AM PST FRI NOV 16 2018

NOTE:"FAIR" INDICATES FEW OR NO CLOUDS BELOW 12,000 FEET WITH NO 
SIGNIFICANT WEATHER AND/OR OBSTRUCTIONS TO VISIBILITY.

WAZ507-509-555>559-162000-
SEATTLE, TACOMA, EVERETT, AND VICINITY
  
CITY           SKY/WX    TMP DP  RH WIND       PRES   REMARKS
EVERETT        CLOUDY    49  49 100 NW7       30.26S                  
BOEING FIELD   CLOUDY    54  48  80 VRB5      30.25S                  
RENTON         CLOUDY    53  50  89 NW9       30.24S                  
SEATAC AIRPORT CLOUDY    53  49  86 N13       30.24S                  
JBLM-MCCHORD   CLOUDY    52  52 100 N8        30.24S                  
PUYALLUP       FOG       52  52 100 CALM      30.23F VSB 1/4          
BREMERTON      CLOUDY    51  46  83 NE14      30.25S                  
JBLM-FT LEWIS  CLOUDY    51  51 100 N7        30.23S                  
TACOMA NARROWS CLOUDY    50  49  96 N10       30.24S                  
$$
 
WAZ001-503-506-510-514-515-162000-
NORTH INTERIOR
  
CITY           SKY/WX    TMP DP  RH WIND       PRES   REMARKS
BELLINGHAM     MOSUNNY   54  43  66 N9        30.26R                  
FRIDAY HARBOR  SUNNY     53  46  77 NW8       30.27F                  
EASTSOUND      CLOUDY    52  50  93 NW9       30.26F                  
PORT ANGELES   CLOUDY    51  48  89 SE7       30.29R                  
EDIZ HOOK      CLOUDY    50  47  88 SE5       30.29R                  
PORT TOWNSEND  CLOUDY    50  48  93 W6        30.27R                  
NAS WHIDBEY    PTSUNNY   54  48  80 NW5       30.30S                  
ARLINGTON      CLOUDY    52  50  93 W7        30.26S                  
BURLINGTON     CLOUDY    52  52 100 NW6       30.26S                  
$$
 
WAZ020-022-039-040-504-511-512-162000-
SOUTHWEST INTERIOR
  
CITY           SKY/WX    TMP DP  RH WIND       PRES   REMARKS
SHELTON        CLOUDY    54  49  83 E8        30.22S                  
OLYMPIA        CLOUDY    52  50  93 N7        30.24S                  
CHEHALIS       CLOUDY    54  52  94 CALM      30.23S                  
KELSO          CLOUDY    51  49  92 SE7       30.24S                  
VANCOUVER      CLOUDY    49  47  93 CALM      30.23F FOG              
SCAPPOOSE, OR  CLOUDY    50  48  93 CALM      30.23S FOG              
PORTLAND, OR   FOG       49  47  93 CALM      30.24S VSB 1            
$$
 
WAZ021-516-517-162000-
WASHINGTON COAST
  
CITY           SKY/WX    TMP DP  RH WIND       PRES   REMARKS
FORKS          CLOUDY    52  50  93 VRB3      30.22S                  
HOQUIAM        CLOUDY    56  53  90 NE6       30.22S                  
ASTORIA, OR    CLOUDY    55  55 100 CALM      30.21F                  
$$
 
WAZ019-023-024-040-567>569-162000-
CASCADE MOUNTAINS AND COLUMBIA GORGE
  
CITY           SKY/WX    TMP DP  RH WIND       PRES   REMARKS
STAMPEDE PASS  MOSUNNY   43  41  93 VRB3      30.19S                  
TROUTDALE, OR  CLOUDY    52  46  80 CALM      30.23F                  
HOOD RIVER, OR CLOUDY    54  46  76 N6        30.20S                  
THE DALLES, OR CLOUDY    53  42  66 NE7       30.22R                  
$$

WAZ026-027-041>044-520-521-162000-
EAST SLOPES
  
CITY           SKY/WX    TMP DP  RH WIND       PRES   REMARKS
OMAK           SUNNY     50  34  54 N14       30.27S                  
WENATCHEE      CLOUDY    45  38  76 W5        30.25S                  
ELLENSBURG     CLOUDY    52  38  58 CALM      30.22R                  
YAKIMA         CLOUDY    51  38  60 W3        30.24R                  
SUNNYSIDE ARPT CLOUDY    46  38  75 SW7       30.24                   
YAKIMA TC      CLOUDY    53  32  45 NE12      30.21R                  
$$

WAZ028-034-035-162000-
COLUMBIA BASIN
  
CITY           SKY/WX    TMP DP  RH WIND       PRES   REMARKS
EPHRATA        MOSUNNY   48  34  58 N7        30.24S                  
MOSES LAKE     PTSUNNY   48  35  60 N10       30.25S                  
PASCO          CLOUDY    48  38  68 E3        30.26S                  
RICHLAND ARPT  CLOUDY    51  39  65 N3        30.26R                  
HERMISTON, OR  CLOUDY    50  38  63 NE7       30.24R                  
$$

WAZ036>038-162000-
NORTHEAST WASHINGTON
  
CITY           SKY/WX    TMP DP  RH WIND       PRES   REMARKS
SPOKANE GEIGER MOSUNNY   43  34  70 CALM      30.19R                  
SPOKANE FELTS  MOSUNNY   41  38  89 CALM      30.20S FOG              
FAIRCHILD AFB  SUNNY     44  32  63 N10       30.18R                  
COEURDALENE,ID MOSUNNY   42  37  82 CALM      30.19S                  
DEER PARK        N/A     45  35  68 CALM      30.19S                  
$$

WAZ029>033-162000-
SOUTHEAST WASHINGTON
  
CITY           SKY/WX    TMP DP  RH WIND       PRES   REMARKS
PULLMAN        CLOUDY    46  38  73 NW9       30.19R                  
LEWISTON, ID   CLOUDY    51  42  71 W5        30.19R                  
WALLA WALLA    PTSUNNY   44  38  79 SW5       30.23R HAZE             
PENDLETON, OR  LGT RAIN  47  39  74 NE7       30.21S                  
$$